Regional Weather Roundup
Issued by NWS Albany, NY

Home | Current Version | Previous Version | Text Only | Print | Product List | Glossary On
Versions: 1 2 3 4 5 6 7 8 9 10 11 12 13 14 15 16 17 18 19 20 21 22 23 24 25 26 27 28 29 30 31 32 33 34 35 36 37 38 39 40 41 42 43 44 45 46 47 48 49 50
000
ASUS41 KALY 282010
RWRALY

NEW YORK STATE HOURLY WEATHER ROUNDUP
NATIONAL WEATHER SERVICE ALBANY NY
300 PM EST FRI NOV 28 2014

NOTE: "FAIR" INDICATES FEW OR NO CLOUDS BELOW 12,000 FEET WITH NO
SIGNIFICANT WEATHER AND/OR NO OBSTRUCTIONS TO VISIBILITY.

NYZ032-033-038>043-046>054-057>066-NYZ062>081-282100-
EAST


CITY           SKY/WX    TMP DP  RH WIND       PRES   REMARKS
ALBANY         PTSUNNY   29  15  56 W10       30.16R WCI  20
GLENS FALLS    MOSUNNY   30  12  47 W10       30.12R WCI  21
POUGHKEEPSIE   CLOUDY    33  17  51 W9G21     30.16R WCI  25
NEWBURGH       PTSUNNY   28  19  69 W14G23    30.16R WCI  17
MONTGOMERY     PTSUNNY   30  15  53 NW8G20    30.16R WCI  22
WHITE PLAINS   MOSUNNY   33  17  51 W13G20    30.14R WCI  24
ISLIP          PTSUNNY   36  19  50 NW18      30.12R WCI  26
NEW YORK CITY  MOSUNNY   36  19  50 NW13G21   30.17R WCI  27
CENTRAL PARK   SUNNY     35  14  42 VRB6G24   30.19R WCI  30
$$

NYZ005>009-017-018-044>046-055-056-282100-
CENTRAL


CITY           SKY/WX    TMP DP  RH WIND       PRES   REMARKS
FULTON         LGT SNOW  25  18  74 SW12      30.19S WCI  14
SYRACUSE       CLOUDY    26  15  63 W14G24    30.20R WCI  14
ROME           CLOUDY    25  20  81 W14       30.19R WCI  13
ELMIRA         CLOUDY    29  14  53 NW9       30.18S WCI  20
BINGHAMTON     MOSUNNY   29   9  43 NW12      30.12S WCI  19
MONTICELLO     CLOUDY    23  12  63 NW13G21   30.13S WCI  11
$$

NYZ026>034-041>043-282100-
NORTH


CITY           SKY/WX    TMP DP  RH WIND       PRES   REMARKS
WATERTOWN      FLURRIES  28  15  58 W12       30.17R WCI  18
FORT DRUM      NOT AVBL
MASSENA        CLOUDY    24  12  60 W13       30.16R WCI  12
SARANAC LAKE   CLOUDY    20  12  71 W8G17     30.01R WCI  10
PLATTSBURGH    CLOUDY    26  13  57 VRB7      30.11R WCI  18
$$

NYZ001>004-010>016-019>021-282100-
WEST


CITY           SKY/WX    TMP DP  RH WIND       PRES   REMARKS
NIAGARA FALLS  FLURRIES  24  14  65 W9        30.21S WCI  14
BUFFALO        FLURRIES  25  14  63 W9        30.20F WCI  15
DUNKIRK        CLOUDY    26  16  65 SW13G21   30.22F WCI  15
JAMESTOWN      PTSUNNY   21   9  58 SW10      30.16S WCI  10
WELLSVILLE     MOSUNNY   21   9  59 W14       30.13S WCI   8
ROCHESTER      PTSUNNY   26  13  57 W12       30.21S WCI  16
PENN YAN       MOSUNNY   26  11  52 SW12      30.18F WCI  16
$$

             KEY
       WCI = WIND CHILL INDEX
       VSB = VISIBILITY
       HX  = HEAT INDEX
$$



USA.gov is the U.S. government's official web portal to all federal, state and local government web resources and services.